Regional Weather Roundup
Issued by NWS Kansas City/Pleasant Hill, MO

Home | Current Version | Previous Version | Graphics & Text | Print | Product List | Glossary Off
Versions: 1 2 3 4 5 6 7 8 9 10 11 12 13 14 15 16 17 18 19 20 21 22 23 24 25 26 27 28 29 30 31 32 33 34 35 36 37 38 39 40 41 42 43 44 45 46 47 48 49 50

000
ASUS43 KEAX 221704
RWREAX

WEATHER ROUNDUP FOR EASTERN KANSAS AND NORTHWEST MISSOURI
NATIONAL WEATHER SERVICE KANSAS CITY/PLEASANT HILL MO
1200 PM CDT MON SEP 22 2014

KSZ040-057-103>105-MOZ028-029-037-043-221800-
...KANSAS CITY METROPOLITAN AREA...

CITY           SKY/WX    TMP DP  RH WIND       PRES   REMARKS
K.C. INTL      MOSUNNY   67  50  54 VRB3      30.32F
K.C. DOWNTOWN  SUNNY     69  49  48 E8        30.31F
LEES SUMMIT    SUNNY     68  49  50 NE5       30.32F
OLATHE - IXD   SUNNY     68  49  50 NE7       30.32F
OLATHE - OJC   SUNNY     68  51  54 VRB3      30.31F
LAWRENCE       SUNNY     69  49  48 VRB5      30.31F

$$

MOZ001>008-011>017-020>025-030>033-038>040-044>046-053-054-221800-
...NORTHERN AND CENTRAL MISSOURI...

CITY           SKY/WX    TMP DP  RH WIND       PRES   REMARKS
ST. JOSEPH     SUNNY     68  51  54 SE5       30.31F
MOSBY          SUNNY     66  50  55 N3        30.32F
WHITEMAN AFB   SUNNY     69  52  53 NE7       30.31F
CLINTON        SUNNY     68  54  60 CALM      30.32F
SEDALIA        SUNNY     70  51  51 NE6       30.32F
WARSAW         NOT AVBL
MARSHALL       SUNNY     72  52  49 E5        30.33F
CHILLICOTHE      N/A     68  50  52 E3        30.33F
MOBERLY        SUNNY     68  46  45 CALM      30.33F
KIRKSVILLE     SUNNY     67  49  52 VRB3      30.33F

$$

MOZ041-047>049-056>058-063>065-088>090-097-221800-
...EASTERN AND SOUTHERN MISSOURI...

CITY           SKY/WX    TMP DP  RH WIND       PRES   REMARKS
ST. LOUIS INTL MOSUNNY   69  50  50 NW6       30.31F
SPIRIT OF STL  SUNNY     67  48  50 NE8       30.30F
COLUMBIA       SUNNY     68  50  52 NE7       30.32S
JEFFERSON CITY SUNNY     69  47  45 N7        30.31F
MEXICO         SUNNY     70  54  56 NE3       30.32S
ROLLA          SUNNY     66  48  52 N12       30.30F
LEBANON        SUNNY     66  48  52 N7        30.32S
OSAGE BEACH    SUNNY     66  50  55 NE5       30.31F
SPRINGFIELD    SUNNY     68  50  52 CALM      30.30F
BRANSON        MOSUNNY   72  52  49 N6        30.31F
NEVADA         SUNNY     70  52  52 E6        30.33S
JOPLIN         SUNNY     68  50  52 NE9       30.31F
WEST PLAINS    MOSUNNY   68  50  52 NE8       30.31S

$$

IAZ060-094-KSZ022-034>040-054-083-096-NEZ052-066-093-221800-
...KANSAS...SOUTHEAST NEBRASKA AND IOWA...

CITY           SKY/WX    TMP DP  RH WIND       PRES   REMARKS
TOPEKA         SUNNY     70  50  49 S5        30.32F
MANHATTAN      SUNNY     71  49  45 S6        30.32F
EMPORIA        SUNNY     68  49  50 SE7       30.32F
CHANUTE        SUNNY     70  50  49 CALM      30.32S
WICHITA        PTSUNNY   73  44  35 SE9       30.31F
OMAHA          MOSUNNY   67  50  54 S6        30.31F
LINCOLN        SUNNY     69  49  48 S9        30.31F
FALLS CITY     SUNNY     69  50  50 SE5       30.30F
LAMONI         SUNNY     66  53  63 VRB3      30.32F
DES MOINES     MOSUNNY   67  50  54 CALM      30.31F

$$



USA.gov is the U.S. government's official web portal to all federal, state and local government web resources and services.